Theta_e
324 323 321 321 321 320 320 321 320 320 319 320 319 319 319 319 319 319 319 319 319 319 318 319 318 318 318 318 318 318 317 317 317 318 318 319 320 320 321 323 324 326 328 331 333 336 337 335 334 335 335 335 335 334 334 335 335 335 336 336 336 336 337 337 338 338 338 337 336 335 335 335 335 335 335 335 336 337 338 337 336 336 335 335 335
327 326 324 322 322 321 320 320 320 321 320 320 319 319 319 318 318 318 318 318 318 319 318 319 319 318 318 318 318 319 319 318 318 318 318 318 319 318 319 320 322 324 325 328 331 334 336 336 336 335 334 334 335 335 335 334 334 335 335 335 335 336 336 337 338 338 338 338 338 337 336 336 336 336 335 335 335 335 335 336 337 336 335 335 335
328 327 326 325 323 322 321 321 321 320 320 321 320 319 319 319 319 319 319 319 319 320 318 318 319 318 318 318 318 318 318 318 318 318 318 318 318 317 317 318 320 322 325 328 330 332 334 335 335 335 336 335 334 335 334 333 334 334 334 334 334 335 335 336 336 337 338 338 338 338 338 337 337 336 336 335 336 335 335 335 336 336 337 335 335
329 328 327 326 325 324 323 321 321 321 321 321 321 320 320 320 319 319 319 319 319 318 318 318 318 319 318 318 318 318 318 318 318 318 318 318 317 317 317 317 318 320 322 325 328 330 332 333 334 335 335 336 335 335 334 334 334 334 333 334 335 335 335 335 335 335 336 337 338 338 338 338 337 337 336 336 336 336 336 335 335 336 336 337 336
328 328 326 327 326 325 323 322 322 322 321 321 320 320 319 319 319 318 318 318 318 318 317 317 317 318 318 318 317 317 318 318 318 318 318 318 318 317 317 317 316 318 319 320 322 326 329 331 332 333 334 335 335 336 336 335 334 334 333 334 335 334 335 334 335 336 337 337 338 338 338 338 338 338 337 337 337 337 336 336 336 336 336 336 337
328 327 326 326 326 325 325 324 323 321 321 320 320 319 319 319 319 318 318 319 319 320 319 318 318 317 317 317 316 317 317 317 317 318 318 318 318 317 317 317 317 316 316 317 319 322 325 328 330 331 332 334 335 335 335 335 335 334 335 335 335 335 335 335 335 336 336 336 337 338 338 338 338 338 338 338 337 337 337 337 336 336 336 336 336
328 328 327 327 326 326 325 325 322 320 320 320 320 319 319 319 319 319 320 319 319 319 318 318 318 317 317 316 316 316 316 316 317 317 317 317 317 317 317 316 316 316 316 315 316 318 321 324 327 329 331 332 333 333 334 334 334 334 335 335 335 335 336 336 336 336 336 337 337 337 338 337 337 337 338 338 338 337 337 337 337 337 336 336 336
330 329 328 328 327 326 326 324 321 320 319 319 318 319 319 319 319 319 318 318 317 317 316 316 317 317 317 316 316 315 315 315 315 315 316 316 315 315 315 315 315 316 314 316 316 316 318 321 324 326 327 329 330 332 333 333 333 334 334 335 335 336 335 336 336 336 336 337 337 337 337 337 337 337 337 338 338 338 338 337 337 337 337 337 336
331 330 329 328 327 326 326 324 321 320 319 319 318 318 319 319 318 317 318 319 318 317 316 315 315 316 316 315 316 315 315 315 315 316 316 315 315 316 316 316 315 313 315 316 316 316 316 317 320 322 323 325 326 329 331 332 333 333 334 335 335 336 336 336 336 336 336 337 337 337 337 337 337 337 337 337 337 337 337 338 337 337 337 336 337
330 330 329 328 328 327 325 324 322 320 320 319 319 319 318 318 318 318 317 317 317 317 317 316 314 315 315 315 316 315 315 315 316 314 315 315 316 316 316 317 316 316 316 316 316 316 316 316 317 318 319 319 322 325 328 330 331 332 333 334 335 335 335 336 336 335 335 336 336 336 337 337 337 336 336 336 336 337 337 337 337 337 337 337 337
329 329 328 328 327 326 325 324 322 321 320 320 319 318 317 317 317 318 315 316 317 317 317 316 316 315 316 316 316 316 317 316 315 316 316 316 316 316 317 317 317 317 317 317 316 316 315 315 315 315 315 316 319 322 324 326 327 329 331 333 333 333 335 335 335 335 335 335 336 336 336 336 336 336 336 336 336 336 336 336 336 337 337 337 337
328 328 328 327 327 326 325 324 323 321 320 320 319 319 318 316 316 316 317 315 314 315 315 313 314 314 314 316 316 317 317 317 317 317 317 317 317 317 317 318 317 317 317 317 317 316 315 315 314 315 315 315 317 319 320 323 323 326 329 331 332 333 334 335 335 335 334 335 335 335 335 335 335 334 334 334 334 333 333 333 334 334 335 335 336
326 326 326 325 326 326 325 324 324 322 321 321 321 320 320 319 318 316 316 316 317 315 313 313 313 315 317 316 317 318 317 316 317 318 318 318 318 318 318 317 317 317 317 316 316 315 315 315 315 314 314 314 315 316 317 320 320 323 327 329 331 332 333 334 334 334 334 334 334 335 335 335 335 334 333 333 332 332 333 333 332 332 332 333 334
325 325 325 326 325 325 324 324 323 323 322 322 321 319 319 318 318 317 315 316 317 315 312 314 312 313 313 313 315 317 317 317 317 317 317 318 318 318 318 317 317 317 316 314 314 314 314 314 314 314 314 314 314 314 315 316 317 320 324 326 328 331 332 333 334 334 333 333 334 334 334 334 334 333 332 332 332 332 332 332 333 332 332 332 332
326 325 325 325 325 325 324 324 324 323 321 321 321 320 320 319 318 319 318 315 316 315 315 318 315 307 310 312 312 309 309 307 308 310 313 315 315 315 316 315 316 315 314 313 314 313 314 313 313 313 313 313 314 314 314 315 315 318 321 323 326 329 331 332 333 334 333 333 334 333 333 333 332 332 331 331 331 331 332 332 332 332 332 332 332
327 326 325 325 325 325 325 324 324 324 323 322 321 321 320 320 319 318 319 318 317 315 317 316 317 313 311 311 308 304 306 310 299 308 307 309 311 312 310 313 313 312 312 313 313 313 313 313 313 313 313 313 314 314 314 314 316 319 320 320 321 326 328 331 333 333 334 333 332 332 331 331 331 331 331 331 331 332 332 332 332 331 331 330 331
327 326 325 325 325 325 325 325 324 324 323 323 322 322 322 321 320 319 319 318 318 318 313 315 315 318 316 307 306 303 306 306 303 310 302 304 304 307 308 309 310 310 310 311 310 312 312 312 313 313 313 313 313 314 314 314 315 314 316 318 322 324 326 329 332 333 333 331 331 331 330 330 330 330 330 330 331 331 331 331 331 331 331 331 331
326 326 326 324 325 325 324 324 324 324 323 323 323 323 322 321 321 320 319 319 319 318 317 312 316 316 318 319 317 311 304 299 305 308 301 307 312 312 307 307 306 307 308 308 309 311 311 312 312 312 313 313 313 313 314 314 314 314 314 315 321 324 326 328 331 333 333 333 331 330 330 330 330 330 330 330 330 330 330 330 331 331 331 331 331
325 326 326 325 325 325 325 324 324 324 323 323 323 322 323 323 322 321 321 320 318 317 318 318 313 316 317 318 318 317 313 308 310 307 309 306 302 302 305 304 304 306 310 310 310 310 311 311 311 312 312 312 312 313 313 314 316 317 319 320 321 322 324 326 328 331 333 332 331 330 329 329 329 330 330 330 330 330 330 330 330 330 330 331 331
326 325 326 325 325 325 325 324 324 324 323 323 323 324 323 323 322 322 322 321 320 319 319 320 317 316 316 316 317 318 318 317 316 312 311 308 311 314 316 317 316 314 313 313 311 311 311 311 311 311 312 312 312 312 313 313 312 313 315 320 323 324 326 327 328 329 330 331 332 331 329 329 329 329 329 329 329 330 330 330 330 330 330 330 330
325 325 325 325 324 324 324 324 324 324 322 323 323 323 323 322 322 321 322 322 322 321 320 320 320 319 317 316 317 317 317 317 317 317 312 310 310 312 314 313 310 310 310 309 311 310 310 311 311 311 312 311 312 312 312 312 313 313 315 318 320 323 325 326 327 329 329 330 331 330 329 329 329 329 329 329 329 329 330 329 329 329 329 329 330
322 323 324 325 325 324 324 324 324 324 322 323 323 323 323 322 322 322 322 321 323 321 320 321 321 321 320 319 316 315 316 315 316 315 315 314 309 311 313 312 311 313 311 314 311 309 310 310 311 311 312 312 312 312 312 312 312 313 313 313 315 318 321 325 328 329 329 330 330 330 329 328 329 329 329 329 329 329 329 329 329 329 329 329 329
321 321 322 324 324 324 324 324 324 323 322 322 322 323 323 323 323 322 322 322 322 322 320 321 321 321 320 320 318 317 316 314 314 315 314 312 311 312 313 314 313 313 314 314 313 313 313 312 312 312 312 312 312 312 311 311 308 310 308 309 312 316 320 323 325 328 329 330 330 329 329 329 329 329 328 328 329 329 329 329 329 328 328 328 328
320 320 321 322 323 323 323 324 323 324 323 324 323 323 323 323 323 322 322 323 323 322 322 321 320 320 321 321 320 320 319 318 318 317 316 314 314 312 313 314 314 315 317 314 311 311 311 312 313 313 313 312 312 311 311 311 311 306 307 308 310 314 318 321 325 327 328 329 330 330 330 330 330 329 329 328 329 328 328 328 328 329 329 328 328
319 320 321 321 322 322 322 323 323 323 324 324 324 323 323 323 322 322 322 322 323 322 322 321 321 320 320 321 321 321 320 321 320 318 318 317 316 313 314 315 312 313 316 314 315 306 311 312 312 312 313 313 312 310 311 311 311 308 304 307 308 310 312 316 322 325 327 328 329 330 330 331 331 330 329 328 328 328 328 328 328 328 327 327 326
321 320 322 322 321 321 322 322 323 323 323 323 324 324 323 323 322 322 322 323 323 323 322 322 322 322 322 321 321 321 321 321 321 320 318 317 315 313 313 313 314 313 315 315 316 314 315 313 314 314 313 312 312 311 310 311 311 305 303 305 309 310 313 316 318 322 325 327 329 329 330 330 330 330 328 328 328 328 328 328 327 327 327 326 326
321 322 321 321 321 321 321 321 322 322 322 322 322 322 322 322 322 322 322 322 322 322 322 322 322 322 322 322 321 321 322 322 321 320 320 319 317 316 314 310 311 313 312 314 315 315 316 317 312 311 312 312 311 310 311 310 307 305 302 306 307 307 309 313 315 319 321 324 326 328 329 329 329 330 328 328 328 328 327 327 326 327 327 326 326
321 320 320 318 319 320 320 320 321 321 321 321 322 321 321 321 321 321 321 322 322 321 322 322 322 322 322 322 322 321 322 322 322 321 321 321 320 319 317 314 310 307 311 311 313 314 317 316 314 314 313 311 312 311 308 308 311 305 302 306 307 307 307 309 312 315 317 320 323 326 328 329 329 329 328 328 328 327 327 326 326 326 326 326 325
319 316 317 317 318 319 319 320 320 320 320 320 320 321 321 321 320 320 320 321 321 321 322 322 322 322 322 322 322 322 322 322 322 322 321 321 321 320 319 316 315 310 309 309 311 312 315 315 315 309 310 311 310 311 311 310 307 307 309 307 307 308 307 308 310 312 313 316 319 323 326 327 328 328 328 328 328 328 327 326 326 325 325 325 325
315 316 314 314 314 313 316 317 318 319 319 320 320 320 319 320 320 320 321 321 320 321 321 322 322 322 321 322 322 321 322 322 322 322 321 321 321 320 320 319 318 313 312 309 310 315 315 315 315 316 305 306 308 309 309 310 305 306 309 309 308 308 306 307 308 310 312 314 316 318 322 324 326 327 328 328 328 327 327 327 327 326 326 326 325
309 310 310 310 311 311 311 313 314 315 316 317 318 319 318 319 319 319 319 319 320 321 321 321 322 322 321 321 322 321 322 322 322 322 322 321 321 321 320 320 318 317 315 313 309 315 318 316 314 316 315 309 307 309 308 309 307 307 310 309 309 304 303 304 304 308 311 314 315 316 318 321 324 327 328 327 327 328 328 327 327 326 326 326 325
306 306 306 307 308 307 308 309 310 311 312 313 314 315 316 317 318 318 318 318 319 319 320 321 321 321 321 321 321 321 322 322 321 321 321 321 321 321 320 320 319 319 317 315 312 312 317 317 318 315 314 314 310 308 309 310 309 302 310 310 310 302 304 306 303 304 306 308 309 311 312 314 319 324 327 327 327 327 327 327 326 326 325 324 322
301 303 303 304 305 305 305 306 306 308 308 309 311 312 312 313 315 316 316 316 317 318 318 319 319 320 320 320 321 321 322 321 321 321 321 321 321 321 320 320 319 319 317 315 312 312 316 319 318 318 316 314 313 311 311 311 310 309 305 309 310 308 308 307 307 304 304 305 308 310 311 311 313 318 323 325 326 326 326 326 325 325 323 320 317
299 300 301 301 301 303 303 304 304 305 307 307 308 308 309 310 311 313 314 314 315 315 316 316 317 318 319 319 319 320 321 320 321 320 320 320 320 320 319 319 318 318 319 316 315 314 313 317 317 318 317 315 315 313 313 312 311 311 310 309 309 310 311 310 308 308 304 305 306 308 309 310 310 311 313 316 320 320 320 320 318 316 315 314 313
297 298 298 299 300 299 301 301 303 303 305 305 306 306 307 308 309 309 311 311 312 312 313 314 314 314 315 316 317 318 320 319 319 320 320 320 320 319 319 319 318 318 318 318 316 313 313 314 317 316 314 312 314 315 313 314 314 313 312 312 312 311 309 308 307 307 305 305 306 307 308 309 310 310 311 312 313 315 314 314 313 312 311 311 311
297 297 296 296 297 297 297 298 299 300 301 302 302 303 305 306 307 308 308 309 310 311 311 312 313 313 313 314 314 315 315 316 316 317 318 319 319 318 318 318 318 318 319 318 318 316 315 313 316 314 316 312 312 314 315 313 312 311 312 313 311 311 310 307 306 306 306 305 306 305 306 306 308 309 310 311 311 312 312 311 310 310 309 309 309
296 296 296 294 296 295 298 297 298 298 299 300 301 301 302 302 304 305 306 307 307 308 309 310 307 311 311 312 313 313 312 312 313 312 313 314 316 316 317 317 317 318 318 318 317 316 315 314 315 317 314 312 312 311 312 310 307 307 306 308 311 311 310 308 304 305 303 303 303 303 304 305 306 307 308 309 309 310 309 308 307 307 306 307 306
293 294 294 294 294 295 295 296 297 298 298 298 298 299 300 300 301 302 303 304 304 305 306 307 308 308 309 310 311 311 311 311 311 312 311 311 313 314 315 316 316 316 316 315 315 314 314 314 314 314 313 309 307 308 308 310 311 308 305 305 303 303 302 303 302 301 302 303 303 304 302 303 304 305 307 307 307 307 306 306 305 304 304 304 304
290 292 293 293 293 293 295 295 295 296 297 296 297 298 299 300 301 301 301 301 302 303 304 305 306 306 307 308 309 309 310 311 311 311 312 312 314 314 314 314 315 314 314 315 315 314 314 314 314 314 314 312 310 311 307 308 310 311 310 308 306 301 297 302 304 301 299 300 301 301 302 302 302 303 305 305 305 305 304 304 303 302 301 301 302
289 289 290 292 292 292 293 293 294 295 295 295 295 296 297 298 299 299 299 300 300 301 301 302 303 304 305 306 307 308 309 310 311 311 312 313 314 313 315 314 314 314 313 313 313 312 312 311 312 312 313 312 311 308 302 301 302 304 304 306 308 307 301 300 302 305 301 297 300 299 298 297 297 299 300 301 301 302 302 301 300 299 299 301 301
290 288 289 291 290 291 291 291 291 291 293 294 295 294 296 297 298 299 299 299 299 298 299 299 299 300 302 303 304 306 306 300 300 301 303 304 314 313 313 314 313 313 313 313 313 313 313 312 311 312 312 311 311 309 304 302 304 307 306 304 307 309 306 302 301 299 302 298 298 296 297 295 295 295 297 297 298 298 299 298 299 297 299 301 301
289 289 288 288 287 289 290 291 290 292 293 295 293 293 294 295 295 296 296 296 296 296 296 296 297 297 298 300 301 296 294 294 294 295 296 296 297 303 310 312 312 312 312 312 311 311 311 310 310 311 310 309 311 311 309 307 306 302 301 300 304 306 297 302 302 296 294 294 294 295 297 292 293 294 292 294 297 294 296 297 298 298 298 300 301
288 288 288 289 289 289 289 290 290 291 292 293 291 294 294 295 294 293 294 294 295 293 293 294 295 295 295 296 298 296 295 294 296 295 295 295 296 296 296 297 300 308 310 310 311 311 310 310 311 311 311 310 311 312 311 311 306 305 307 305 305 305 304 302 303 295 290 297 295 296 298 294 292 295 295 294 296 294 293 294 296 297 297 298 299
287 288 287 288 288 288 289 289 289 290 290 290 292 293 294 294 293 293 293 293 293 293 292 292 293 293 294 295 295 298 298 299 299 300 298 296 296 295 295 296 296 296 298 303 307 308 308 309 309 309 310 310 311 312 311 309 307 304 305 305 304 304 303 302 301 303 294 295 297 296 299 295 291 294 296 297 295 294 293 294 295 296 297 297 298
286 286 287 287 287 288 288 288 288 289 289 290 292 292 293 293 294 293 293 293 292 291 291 291 292 292 292 293 294 295 298 293 293 296 297 299 296 296 296 295 295 296 298 298 298 303 308 307 307 307 309 310 310 311 311 310 306 307 305 304 304 304 305 304 304 303 289 293 298 297 299 296 290 293 295 297 292 291 290 291 293 295 296 297 297
285 286 286 286 286 287 287 287 287 288 288 289 291 292 292 292 293 293 292 293 292 291 291 291 291 291 292 292 292 293 294 294 295 297 298 299 300 301 302 303 304 301 296 295 296 296 297 304 307 307 310 311 309 311 311 305 306 306 305 303 304 303 302 304 306 305 297 292 298 297 295 294 289 292 293 294 289 289 288 290 293 294 295 296 296
284 284 284 285 285 286 286 286 286 286 287 289 290 290 291 291 291 291 291 291 290 290 290 290 291 291 291 292 292 292 293 294 295 297 298 298 299 299 299 300 301 302 303 304 304 303 301 302 304 306 308 310 311 312 313 313 311 311 311 310 308 307 307 305 302 290 286 291 296 296 298 296 287 290 293 292 287 287 287 290 292 294 295 295 296
284 284 284 284 284 284 285 285 285 285 286 288 288 289 289 290 291 289 288 288 288 288 288 289 289 289 289 290 290 291 293 294 293 294 295 296 296 295 295 296 296 298 299 298 299 300 303 306 307 307 308 310 306 309 310 312 312 311 306 302 300 298 299 299 300 298 293 290 293 298 298 291 285 291 292 285 286 286 286 285 289 293 294 295 296
284 284 284 284 284 284 284 284 284 284 284 286 287 288 288 289 288 287 287 287 287 287 288 289 289 290 291 291 292 293 294 294 293 294 295 293 295 295 295 295 295 296 297 299 297 297 298 298 299 300 302 303 303 304 303 303 304 308 307 304 302 302 300 298 298 297 296 290 288 294 298 296 286 288 288 285 285 286 285 285 285 290 294 295 295
283 283 283 283 283 283 283 283 283 282 283 284 286 286 287 287 287 286 286 286 286 287 288 289 291 291 292 289 288 292 293 293 293 294 294 293 293 294 294 294 294 294 295 296 298 299 297 297 296 296 297 298 299 300 301 302 302 302 303 301 303 302 298 298 299 300 294 289 290 291 293 295 285 287 286 284 285 285 284 284 285 286 293 296 296
283 283 282 281 282 282 283 283 283 283 283 284 285 286 286 287 286 286 286 285 285 286 287 288 289 289 290 289 288 290 291 292 293 293 294 293 293 293 294 293 293 293 295 296 297 297 298 298 299 300 299 297 298 300 300 298 298 297 303 305 306 302 300 299 299 299 295 291 290 291 293 289 286 286 287 284 284 284 282 281 283 284 285 287 290
Wind_Speed
6 6 5 6 6 6 6 6 6 6 5 6 6 6 6 5 6 6 6 7 6 7 6 7 6 6 7 8 8 8 8 8 8 8 8 8 8 10 14 17 20 21 22 21 21 21 22 22 22 23 23 23 22 22 23 23 23 23 23 23 23 23 21 20 18 17 18 19 19 20 20 21 20 20 20 21 21 21 20 21 24 23 21 20 21
7 6 6 7 6 6 6 6 7 6 6 7 6 6 7 6 6 6 6 7 7 8 7 8 8 8 7 9 9 8 8 8 8 8 8 8 8 9 14 15 19 21 21 20 21 22 22 22 23 23 23 23 23 23 23 23 24 23 22 23 23 23 22 20 19 18 18 18 19 19 20 20 20 20 20 21 21 21 21 20 19 22 23 21 21
8 8 7 7 6 6 7 6 7 6 6 7 5 7 6 7 7 7 7 7 8 7 7 8 8 8 7 8 9 7 8 7 8 8 8 8 8 8 10 15 17 20 20 22 22 22 22 22 23 23 24 25 25 23 23 24 24 24 24 23 23 23 23 22 22 21 20 18 18 18 19 19 19 19 19 20 20 21 21 21 20 18 18 20 22
8 8 8 8 8 7 7 7 8 6 7 7 7 7 7 7 7 7 7 7 7 6 6 7 8 8 7 8 7 8 8 7 8 8 9 8 8 8 8 9 14 18 19 21 22 23 22 23 23 23 24 25 25 25 24 24 24 24 25 24 24 23 23 24 23 22 21 19 18 18 18 19 19 19 19 19 20 20 21 21 21 20 19 17 17
8 9 8 8 8 8 8 8 7 7 7 8 8 6 6 6 7 5 6 6 7 8 6 7 9 8 7 8 7 8 8 8 8 8 9 9 8 8 8 9 9 13 17 18 20 21 22 23 23 23 24 24 25 25 25 25 25 24 25 26 25 25 24 25 23 20 20 20 19 19 18 18 18 18 19 19 20 20 20 20 20 20 19 18 17
8 8 8 8 8 9 9 9 7 6 6 6 7 6 7 7 8 6 7 7 8 8 7 9 8 7 8 7 7 8 7 8 8 9 8 9 8 8 9 8 8 8 9 15 19 19 22 23 23 23 24 24 25 26 26 26 26 26 26 26 26 26 26 25 23 22 21 21 20 19 18 18 18 18 18 19 19 19 19 19 20 20 20 21 19
9 8 8 8 8 9 9 8 6 5 6 6 7 6 6 8 6 8 7 8 8 8 8 9 9 9 8 6 8 7 7 9 8 9 9 9 8 9 9 9 8 8 9 8 12 18 20 22 23 23 24 24 25 25 25 26 26 26 26 27 26 27 25 25 23 23 22 21 20 19 18 18 18 17 17 18 19 20 20 20 20 20 20 21 20
9 9 9 8 8 9 9 7 6 6 6 6 6 7 7 7 7 7 8 9 7 9 6 8 8 10 8 7 7 7 8 8 9 9 9 8 9 9 8 9 9 9 9 9 9 10 15 18 21 22 23 23 24 24 25 26 25 25 26 27 26 26 25 25 25 23 22 21 19 18 18 17 16 15 15 15 15 16 18 18 19 19 19 20 21
10 9 9 9 8 9 8 8 6 7 6 6 7 7 7 7 7 7 7 9 7 9 7 6 8 9 8 8 8 8 9 8 9 8 8 10 10 9 9 10 10 11 9 10 9 8 11 17 18 20 21 21 22 23 24 25 26 26 27 26 26 25 24 24 24 22 21 19 18 18 17 17 17 16 16 16 17 16 16 17 18 18 18 19 20
9 9 9 9 9 9 8 7 6 6 7 7 8 6 6 7 9 6 6 7 8 8 9 7 7 7 8 8 9 8 9 9 8 8 8 11 10 11 10 9 9 10 9 10 9 8 8 12 16 18 19 19 19 21 23 24 25 26 26 25 25 24 24 24 23 22 21 19 18 18 17 16 15 14 15 16 16 16 15 15 16 18 19 18 19
9 9 9 9 9 9 8 7 7 7 7 7 7 7 7 7 8 8 5 8 8 8 8 6 8 8 9 10 8 10 9 8 8 9 9 11 12 11 8 11 9 10 10 9 8 8 9 8 7 8 9 15 16 19 20 22 23 24 25 25 25 25 24 24 22 21 19 18 17 17 16 15 14 14 14 14 13 13 15 14 14 15 16 18 18
8 8 9 9 9 9 9 8 7 7 8 9 8 7 8 8 9 8 9 6 6 6 5 5 7 9 11 11 11 12 12 10 11 12 11 11 11 9 11 9 9 10 10 8 8 8 8 8 7 8 7 9 13 15 17 19 19 21 23 23 23 24 24 25 24 22 20 18 17 17 16 15 14 13 12 13 14 15 16 16 16 17 17 17 18
9 9 10 10 10 9 9 8 7 8 9 10 8 9 8 8 7 6 8 9 8 5 4 4 6 11 8 10 11 9 11 11 14 12 11 10 8 9 10 9 10 9 8 6 7 7 8 7 7 7 7 6 8 12 15 18 17 20 22 22 23 23 24 24 24 23 21 19 18 18 17 15 14 14 15 15 16 16 17 17 17 18 18 18 17
10 11 11 11 11 10 10 9 8 8 9 9 8 7 7 7 5 7 5 8 9 5 5 5 4 6 9 10 11 9 10 12 11 10 10 9 8 9 9 8 10 7 5 6 7 6 7 6 6 7 6 6 7 6 7 9 12 19 21 22 22 23 23 24 23 22 21 19 18 17 16 16 16 16 17 18 18 19 19 20 20 19 19 19 19
11 11 10 10 10 9 9 8 9 8 8 9 9 10 8 9 8 9 6 5 8 4 6 9 7 2 2 4 10 10 5 2 4 6 7 8 7 9 9 8 9 6 6 6 6 5 5 6 7 6 6 7 7 7 7 9 10 14 18 19 20 22 23 23 23 23 21 19 18 17 16 16 17 19 19 19 19 19 19 19 19 19 19 19 17
11 10 9 10 9 10 8 8 9 8 9 9 9 11 9 9 8 8 8 10 7 6 8 9 8 4 4 6 3 1 10 9 4 7 6 7 5 7 4 7 6 5 4 6 6 5 6 5 6 6 7 7 7 7 8 8 12 15 16 17 19 20 21 22 22 22 21 20 19 19 19 19 18 18 19 19 20 19 19 19 19 19 19 18 17
10 10 10 10 9 9 9 9 9 9 9 10 10 11 9 8 9 9 10 11 11 7 5 9 10 9 8 1 3 2 7 7 8 9 1 2 4 5 5 5 5 5 5 5 4 5 6 6 6 6 7 7 7 7 8 8 8 8 11 15 20 20 21 22 22 22 22 21 19 19 19 18 18 19 19 20 19 19 19 18 18 18 18 17 16
9 9 9 9 9 10 9 9 10 9 9 10 9 8 9 10 11 10 10 11 11 8 8 5 9 10 12 11 8 8 5 3 5 11 1 5 11 9 6 4 3 4 4 4 5 6 5 7 6 7 7 7 7 7 7 8 8 8 8 10 17 18 20 21 22 22 22 21 20 20 19 18 18 18 18 19 19 18 19 18 18 17 17 17 16
8 8 9 10 9 9 10 10 10 9 9 8 10 11 10 10 8 9 11 9 8 11 12 8 4 8 10 11 12 10 7 5 9 6 16 2 5 1 2 2 3 4 8 8 7 7 7 6 7 7 7 6 6 7 7 8 11 12 14 16 17 17 19 20 21 21 22 21 20 20 19 19 19 18 18 19 19 19 18 18 17 17 17 16 16
9 9 9 10 9 9 9 9 9 10 9 10 11 10 9 8 9 10 9 9 10 11 12 9 9 6 8 10 11 11 10 11 10 11 12 16 18 4 9 11 10 9 9 9 8 7 8 6 7 7 7 7 7 7 8 7 7 8 10 18 19 20 20 20 21 21 21 20 20 19 19 19 19 18 18 18 18 19 19 18 18 17 17 17 16
8 8 8 9 9 10 9 9 10 10 10 10 10 11 11 10 9 9 10 10 10 11 10 10 9 10 6 7 9 9 9 9 10 9 11 12 19 14 17 4 6 6 7 5 7 6 7 8 8 8 8 7 7 7 7 7 8 8 10 15 17 18 19 20 21 21 21 20 20 19 19 19 19 18 18 19 18 19 19 19 18 17 17 16 16
6 7 8 9 9 9 10 11 12 11 9 10 11 10 10 11 12 11 10 11 9 10 11 10 10 9 9 7 7 5 7 7 8 9 11 12 15 17 13 17 17 8 5 8 8 7 8 8 8 9 9 8 8 8 7 8 8 8 11 16 15 16 18 20 20 21 22 21 20 19 18 19 18 18 18 18 19 19 20 19 18 17 17 16 16
7 8 9 9 10 10 10 11 10 9 9 10 11 11 11 11 10 10 10 12 10 11 11 11 10 10 10 9 10 10 10 10 9 8 9 9 10 13 11 13 14 18 5 7 7 8 8 7 8 8 8 8 8 7 7 7 9 12 17 16 15 14 17 19 20 21 22 22 20 19 19 18 19 18 18 18 19 19 20 19 18 17 17 17 16
6 7 8 9 9 9 10 10 9 9 11 10 10 10 10 9 8 9 9 11 11 11 11 11 12 11 12 10 11 10 10 11 10 9 9 11 10 14 11 10 13 12 11 7 6 8 8 9 10 9 8 8 8 7 7 8 10 16 14 15 15 15 17 18 21 21 22 22 21 20 19 19 19 19 18 19 20 20 20 19 18 17 16 16 16
7 8 9 10 9 8 9 9 9 10 11 10 10 10 9 9 9 10 10 10 11 12 11 12 12 11 11 11 10 10 11 10 10 10 10 10 11 13 12 8 14 13 11 8 9 3 7 9 8 8 8 9 8 7 8 8 8 12 14 10 14 14 16 17 19 21 22 23 22 21 20 19 19 19 19 19 20 20 20 19 18 16 16 16 16
8 9 8 8 7 9 9 9 10 9 10 10 10 10 10 10 10 10 11 11 10 12 12 13 12 13 11 10 11 11 11 10 11 10 11 10 11 12 13 9 10 13 9 8 10 10 7 6 6 8 8 9 8 7 7 9 8 12 14 10 10 13 13 16 18 20 21 22 23 22 21 20 20 20 20 20 20 20 20 19 18 17 16 15 15
7 7 6 7 7 7 8 9 8 9 8 8 9 9 9 9 9 10 9 8 10 10 10 12 12 12 13 12 11 11 10 10 10 11 11 11 12 11 10 13 13 11 11 9 10 12 14 10 7 7 8 8 7 7 8 7 10 13 12 7 7 12 13 14 15 18 20 21 22 23 22 20 20 21 21 19 17 17 20 19 18 17 16 16 16
6 5 5 4 5 6 7 8 8 8 8 9 9 8 8 9 9 8 10 8 10 12 11 11 13 14 14 13 11 12 10 10 10 11 10 11 10 10 9 10 11 16 12 12 10 11 9 11 5 9 8 8 8 8 9 10 8 13 11 6 6 8 12 13 14 15 17 19 21 22 22 21 21 21 21 19 17 16 17 17 17 16 14 15 15
6 4 5 5 6 6 7 7 8 8 7 8 8 8 8 8 8 9 10 9 10 11 10 11 11 11 11 13 12 11 11 10 11 10 10 10 10 10 10 11 10 11 14 12 14 11 9 7 8 3 7 6 7 7 7 7 10 10 6 6 6 7 10 13 14 14 15 17 19 20 21 20 20 21 22 21 20 17 17 17 16 15 15 16 15
4 5 4 4 4 5 5 6 6 6 7 7 7 7 7 7 8 8 9 8 9 9 9 10 11 10 11 11 11 11 10 10 11 11 10 11 11 11 11 11 10 12 12 13 17 10 10 7 8 7 3 6 6 6 7 9 11 12 8 8 6 7 12 14 13 13 14 15 16 18 20 20 20 21 22 22 22 21 20 19 18 17 17 18 18
5 5 4 4 4 4 4 5 5 6 5 6 6 6 6 7 7 8 8 8 9 10 9 9 10 9 11 12 11 11 10 10 11 10 10 10 10 10 10 10 10 12 12 12 15 14 5 12 4 8 7 7 7 7 6 7 9 11 9 8 8 10 13 10 13 13 13 15 16 17 18 20 21 21 22 22 22 22 22 21 20 20 20 20 20
4 4 5 5 4 4 4 4 5 5 5 5 5 6 6 6 7 7 7 7 9 10 10 9 8 9 11 12 12 11 10 9 11 10 10 10 10 11 11 11 12 11 11 12 13 21 7 8 11 6 8 8 7 7 8 7 8 12 8 8 9 11 7 7 12 14 15 16 16 17 17 18 19 21 22 22 23 23 23 23 23 22 21 20 17
3 4 4 4 4 4 4 4 4 4 4 4 4 5 5 6 6 7 7 7 9 9 9 10 9 9 11 11 12 12 10 11 10 9 10 10 10 10 10 11 11 11 11 11 14 17 16 8 10 10 7 7 7 8 9 8 7 7 9 8 8 7 7 7 8 12 15 15 16 17 18 18 18 18 19 19 20 21 21 22 20 19 17 13 10
2 3 4 4 4 4 4 4 4 4 4 5 4 4 5 5 6 6 6 7 8 9 8 10 9 8 9 11 12 11 9 11 11 10 10 10 10 10 10 10 10 11 10 11 13 14 19 13 8 8 6 7 10 6 9 10 9 8 10 9 8 8 8 8 7 7 13 14 15 17 18 19 19 19 18 17 17 17 17 17 15 14 12 10 11
2 2 3 3 3 3 4 4 4 4 5 5 5 4 5 5 7 6 6 6 7 8 8 9 9 7 9 10 11 10 7 10 11 10 9 10 10 11 12 10 11 12 10 11 11 13 16 17 12 9 7 6 10 9 9 10 10 9 10 9 10 9 8 7 7 6 10 14 15 16 17 18 20 20 19 19 18 18 16 15 13 12 11 11 11
6 4 3 3 3 3 3 4 4 4 4 5 5 4 5 5 6 7 6 6 6 7 8 9 8 7 9 9 10 8 8 10 11 9 9 9 9 9 10 10 10 12 12 11 14 14 13 15 14 8 8 6 8 9 9 8 9 7 9 9 6 8 8 8 8 7 10 15 14 14 15 16 19 21 22 21 19 18 16 15 15 14 13 13 13
6 7 6 4 5 4 4 4 4 4 4 4 4 5 5 5 6 6 6 6 7 7 8 8 8 8 9 9 10 7 7 9 10 8 8 10 9 9 10 10 10 11 10 10 11 12 14 17 18 12 6 7 7 6 6 6 7 7 7 9 11 11 9 8 6 8 10 13 13 14 15 16 18 18 19 18 19 19 19 18 18 16 16 15 14
5 4 6 6 5 6 5 5 5 5 4 4 4 5 5 5 5 5 6 7 7 8 8 8 8 8 9 10 9 8 8 10 11 9 8 9 9 9 11 11 10 10 11 10 9 9 11 13 13 15 9 7 6 7 7 9 9 8 6 7 6 6 5 7 7 6 5 6 7 8 11 14 16 19 19 17 17 18 18 17 17 16 17 16 15
3 4 4 4 4 4 6 5 6 6 5 4 3 4 5 5 5 6 6 7 7 7 7 8 8 8 8 9 9 8 9 9 10 10 9 9 9 10 10 10 9 9 10 11 11 13 14 15 15 14 13 7 6 10 6 9 11 11 11 9 9 6 5 9 9 5 5 8 9 12 10 9 11 12 16 18 18 19 18 17 16 17 17 16 15
4 3 4 4 4 3 4 4 5 5 5 4 4 4 4 4 5 6 6 7 8 8 7 8 8 8 8 8 8 9 9 9 10 10 9 10 9 10 10 9 9 10 10 9 8 8 9 9 11 13 12 11 9 8 0 3 5 6 6 6 11 9 7 8 11 10 7 7 7 7 6 6 7 9 9 10 13 14 15 14 16 15 16 16 15
6 4 3 4 5 5 4 4 4 4 4 5 4 4 4 4 4 6 6 7 8 8 9 8 8 7 8 8 8 8 9 13 15 14 13 11 9 10 10 9 9 10 11 11 12 12 13 13 13 11 11 11 11 8 6 7 10 14 8 10 12 12 6 6 9 8 9 8 9 6 7 7 7 7 7 8 10 11 11 13 11 15 16 16 16
8 7 6 4 4 5 7 6 4 4 3 4 5 8 7 6 6 6 6 7 7 7 8 9 9 7 7 7 8 13 14 15 15 16 16 16 15 13 12 11 10 10 10 10 11 10 10 11 12 12 11 11 12 11 10 10 9 5 6 7 10 10 5 8 7 5 5 4 5 8 9 6 8 9 7 10 8 9 9 8 10 11 14 14 17
10 10 9 8 6 5 6 7 8 5 3 4 8 10 10 11 8 6 7 7 6 6 7 8 9 9 7 7 7 9 10 12 11 14 15 16 16 17 18 18 15 14 12 13 12 10 10 11 12 12 14 17 17 15 12 12 8 12 12 10 11 9 10 10 13 3 3 9 8 7 10 8 8 11 10 11 11 9 8 9 13 14 13 12 18
12 10 10 9 8 7 7 7 7 6 3 5 10 11 12 12 10 8 7 7 7 6 6 7 8 8 8 8 7 7 7 8 8 8 9 11 13 15 16 17 18 19 18 15 15 13 13 11 10 11 11 12 15 12 11 8 7 7 8 8 9 10 10 11 9 10 5 12 10 8 14 7 8 9 10 12 9 9 10 11 12 13 14 14 15
11 11 11 10 10 8 8 9 9 6 5 7 10 11 11 12 12 11 7 7 7 8 7 7 8 8 8 8 9 8 8 11 8 6 7 9 12 14 16 17 18 19 18 19 20 18 14 13 14 16 15 13 13 13 11 8 5 11 10 11 11 11 11 12 14 11 4 11 9 10 12 8 10 11 14 11 8 8 7 8 13 14 16 16 17
11 12 11 12 10 10 9 9 9 7 6 8 12 13 13 14 13 11 8 8 7 8 8 8 8 8 8 7 8 10 8 6 6 6 7 9 9 9 10 10 10 12 14 19 22 24 20 15 15 17 18 15 15 15 13 4 7 10 9 9 8 9 10 13 13 13 7 12 13 9 7 8 8 9 12 8 6 7 7 9 14 15 16 17 16
10 11 11 12 11 10 10 10 10 9 6 12 13 14 15 16 16 12 7 7 7 8 7 7 8 8 8 7 7 9 10 8 5 6 7 8 8 8 9 10 9 10 12 13 12 10 10 12 15 17 19 18 16 16 16 12 10 12 12 14 14 15 16 12 9 2 2 8 9 6 13 6 6 8 11 7 6 6 5 7 13 14 16 17 16
7 7 8 8 9 10 10 10 9 8 7 12 14 15 16 16 17 8 7 7 8 8 8 6 6 6 6 6 7 9 10 10 7 8 8 9 10 11 13 12 12 12 13 15 16 14 12 12 14 16 16 17 18 17 16 15 13 12 10 7 6 6 6 6 11 7 7 6 10 11 9 5 6 10 7 3 4 5 4 4 7 11 14 14 14
9 8 8 8 8 9 10 9 9 8 7 10 14 15 15 17 12 6 7 7 7 8 8 7 6 7 6 6 7 9 10 9 9 10 11 12 10 11 12 12 11 11 12 12 9 12 18 21 22 23 24 25 27 27 25 25 19 14 10 11 14 12 9 9 12 9 10 7 7 11 9 8 7 7 4 1 2 3 3 4 3 5 10 15 15
10 8 8 8 8 7 8 10 9 11 8 10 15 15 15 15 12 8 7 7 8 7 8 8 6 6 6 8 8 8 9 10 11 13 13 12 11 10 11 11 13 13 14 9 6 9 15 18 19 20 21 23 25 26 26 25 25 19 13 16 15 8 10 11 14 13 5 6 11 11 7 7 5 5 4 1 1 2 2 2 2 3 6 12 17
9 9 8 9 9 7 6 8 9 9 8 8 13 14 15 14 10 5 6 8 8 7 7 9 7 6 7 5 8 9 9 11 15 14 14 12 10 10 10 11 12 13 12 9 10 12 11 9 9 11 11 14 15 15 16 22 22 19 15 16 14 13 14 13 14 10 7 8 7 11 10 4 8 6 8 4 4 2 3 1 2 2 1 3 6
Wind_Direction
226 227 222 229 225 223 222 226 221 222 211 227 217 227 233 228 232 238 237 243 244 248 242 245 241 239 239 249 244 245 246 244 245 248 247 248 249 249 245 247 253 258 260 259 261 262 263 267 269 268 269 271 272 271 271 269 269 269 267 267 270 271 271 269 261 254 252 253 257 258 260 262 263 261 261 264 267 273 270 259 254 254 254 253 253
227 225 222 233 228 226 226 228 225 219 212 229 214 221 229 229 234 237 237 242 244 245 239 247 244 240 237 245 247 245 244 245 247 246 247 249 249 251 248 246 249 252 253 254 257 258 259 260 264 267 268 268 269 271 270 270 268 267 269 270 269 268 268 267 268 265 258 253 252 252 253 254 256 257 259 260 262 265 270 271 267 261 260 258 257
227 226 227 232 230 227 231 225 232 220 213 230 212 221 223 226 229 233 235 240 244 244 239 249 250 246 242 242 248 249 248 246 249 249 249 248 248 249 249 245 245 245 248 252 253 254 255 257 259 261 264 267 269 269 269 268 267 266 266 267 267 267 267 269 269 269 267 261 256 252 251 250 251 252 254 256 256 258 262 267 269 268 265 264 263
225 228 230 231 233 229 231 225 232 221 215 225 223 220 224 231 232 237 242 242 251 248 241 249 253 250 247 247 249 248 250 248 248 247 249 249 248 248 247 246 244 243 245 247 250 252 254 255 256 258 259 263 266 267 267 267 266 266 266 266 267 268 268 266 264 266 267 266 262 259 255 252 250 250 250 250 251 253 258 261 265 267 266 265 259
226 229 227 231 233 232 232 230 230 221 217 222 226 225 226 234 240 234 244 246 251 254 250 249 254 254 250 250 248 250 249 249 249 250 250 250 248 248 248 246 247 247 246 244 245 247 250 252 254 255 256 259 262 264 265 267 266 265 265 266 268 268 267 267 266 263 261 261 261 259 258 257 254 252 250 249 248 247 247 250 252 257 263 263 262
222 226 224 229 232 233 235 235 228 223 220 215 223 219 227 228 235 232 238 239 245 248 247 252 251 252 251 252 247 251 250 250 248 249 252 252 251 248 249 248 247 247 247 246 246 245 246 248 251 252 253 255 258 261 263 264 265 264 265 265 267 268 268 267 265 263 261 261 260 259 257 256 257 256 253 251 251 251 250 247 247 248 252 258 259
218 222 224 226 232 236 236 239 228 215 219 218 219 224 225 231 225 234 241 238 242 246 241 251 258 257 252 242 247 251 248 251 253 253 251 255 252 252 250 250 249 248 247 250 246 244 243 246 249 250 252 253 256 259 261 263 262 262 262 263 264 264 266 265 263 262 260 259 259 260 259 256 256 256 255 253 251 250 249 247 245 244 245 249 255
222 219 228 225 230 236 237 234 223 212 218 218 213 226 226 234 229 228 245 249 247 253 239 256 258 264 261 253 254 249 251 253 253 253 251 255 252 253 249 248 247 248 247 250 251 247 241 243 246 250 251 252 255 257 259 261 262 261 261 261 262 263 263 263 263 261 261 261 262 263 263 262 261 260 261 262 260 257 257 255 252 248 245 244 250
221 219 226 229 230 235 238 229 214 215 216 216 219 222 225 233 237 225 230 257 252 260 256 249 259 260 262 258 255 253 252 253 253 251 254 250 254 252 252 250 248 247 248 249 251 253 249 244 246 247 249 250 253 255 258 260 260 261 261 260 261 261 262 262 262 260 258 257 259 261 262 260 258 258 259 260 261 260 256 252 250 249 247 246 246
220 218 224 229 231 233 235 226 214 215 220 217 227 218 225 229 247 230 220 238 254 256 262 257 253 262 264 260 262 251 255 255 253 253 250 257 255 253 252 252 247 245 244 246 248 251 251 249 248 250 249 249 249 251 254 258 260 261 262 262 261 262 262 262 263 262 261 259 257 256 256 255 255 257 260 261 260 259 259 261 259 253 247 242 242
218 216 223 226 229 232 233 225 212 216 221 228 231 225 225 227 238 248 222 225 239 246 253 266 274 272 271 271 268 261 260 252 254 254 249 252 255 256 255 252 248 247 248 246 247 246 249 250 249 249 252 247 247 248 251 253 256 259 261 262 263 264 264 264 263 263 261 259 259 259 258 257 257 256 257 259 259 256 255 255 257 260 261 258 247
216 215 222 224 228 229 232 224 217 212 224 231 232 225 226 227 236 238 250 248 234 248 251 270 277 275 276 277 263 265 262 254 254 251 251 251 253 254 252 254 246 251 247 249 248 247 249 251 247 250 253 250 245 245 246 250 252 255 258 260 261 261 262 263 263 262 261 259 259 260 258 257 256 257 259 257 255 256 260 261 260 261 261 259 258
213 212 220 222 226 228 228 226 216 216 225 234 230 232 221 220 231 217 235 252 255 216 225 206 272 285 267 265 276 254 253 248 250 249 248 252 249 254 255 255 253 253 253 247 246 245 248 249 249 249 249 250 251 248 248 252 250 253 256 259 259 260 260 260 261 260 259 259 258 258 258 256 255 254 257 259 261 258 255 255 257 259 259 260 262
211 211 216 215 220 222 224 225 212 222 227 234 233 231 223 215 208 241 205 232 255 179 195 131 240 247 305 310 294 283 235 243 245 253 248 250 249 250 255 253 259 259 262 248 250 245 248 248 249 248 248 246 249 246 248 250 251 252 255 257 258 259 260 260 259 258 258 259 258 258 257 256 254 256 258 260 260 261 261 261 262 262 262 260 259
215 213 217 219 223 222 226 218 220 218 226 232 229 233 222 221 209 225 239 216 244 198 181 182 246 149 204 329 300 332 334 295 292 276 264 252 247 245 247 252 265 265 256 253 254 250 248 245 249 248 249 244 246 243 245 246 245 249 251 252 253 256 258 258 258 258 257 256 256 256 257 256 257 258 260 259 260 261 262 261 260 260 260 262 263
217 215 219 220 217 223 224 217 223 214 223 233 229 234 222 223 216 220 220 254 230 235 188 196 206 133 280 214 262 68 312 296 331 284 219 244 242 258 255 258 258 263 251 254 256 253 252 242 248 245 245 245 241 243 242 246 250 252 248 247 248 251 255 256 256 256 255 253 253 253 255 256 255 255 254 256 260 261 261 262 263 262 260 260 259
220 217 218 222 218 221 219 222 221 218 217 229 232 231 226 221 214 216 211 225 251 241 217 199 204 200 198 234 299 285 232 288 344 282 109 290 248 229 248 251 256 261 256 261 260 253 254 253 248 246 245 243 242 240 244 247 250 248 250 249 249 248 250 252 252 252 252 254 254 254 254 253 254 254 255 256 257 258 260 262 261 260 259 257 257
223 220 219 219 220 219 219 221 223 221 217 227 235 237 230 221 215 215 222 218 233 249 247 201 209 203 218 225 215 243 274 258 25 297 349 230 272 259 257 245 252 262 261 262 257 256 241 252 245 248 245 240 238 240 240 246 245 245 244 246 246 247 248 248 248 249 250 251 251 252 252 253 253 254 256 256 257 258 257 257 258 259 256 255 253
225 219 220 219 220 219 219 221 225 224 222 225 233 232 231 227 220 211 223 220 210 238 245 237 173 222 222 229 240 248 253 278 267 309 301 310 188 323 313 210 212 252 274 264 259 263 261 245 254 254 251 243 239 240 241 247 248 250 246 245 245 243 244 246 246 246 248 249 249 250 250 251 251 252 254 256 256 256 255 255 255 255 254 250 249
221 217 219 219 219 223 221 222 224 227 220 222 230 233 233 232 219 218 221 216 213 222 241 236 223 232 203 225 235 243 246 247 246 254 271 289 287 253 248 271 272 256 257 268 260 251 265 259 256 256 256 247 237 238 242 243 245 246 251 252 251 250 248 246 244 244 244 245 246 248 249 249 249 250 252 255 257 258 256 253 253 253 252 251 249
218 219 219 220 218 223 221 222 224 227 219 227 231 231 230 231 223 216 218 222 217 225 232 239 229 239 217 222 228 235 237 235 242 235 244 274 276 283 290 230 236 251 269 240 251 245 243 252 247 249 255 254 243 240 240 240 245 246 248 246 246 247 246 245 244 241 241 240 241 244 244 245 246 248 250 253 255 255 254 252 249 247 249 249 248
220 222 221 219 221 220 222 223 225 227 222 226 232 233 233 231 229 224 221 225 223 222 226 233 237 240 228 233 226 230 236 235 228 230 241 232 262 280 285 298 296 272 202 248 253 235 243 243 251 251 251 252 249 243 236 241 242 248 251 250 247 244 244 246 245 242 239 237 237 238 239 240 242 245 249 253 255 255 254 251 246 245 246 245 245
211 217 217 218 220 219 221 225 226 226 225 226 228 228 231 231 232 229 226 225 226 227 227 230 235 238 234 229 232 228 230 235 230 229 235 246 263 264 269 273 277 292 253 226 227 240 238 236 244 247 248 248 248 241 240 240 244 247 250 251 249 243 242 243 245 244 241 240 235 234 233 234 237 241 246 251 254 255 252 248 246 245 244 243 244
214 216 220 218 220 221 223 227 227 225 227 226 229 229 232 232 231 227 228 226 229 230 231 230 226 234 235 233 235 232 236 237 243 241 238 250 251 267 267 278 278 266 287 270 246 242 231 240 239 244 245 247 242 235 237 242 247 249 252 252 251 248 247 246 246 244 242 241 238 234 231 231 232 235 240 247 252 253 250 245 243 242 241 240 241
220 222 225 219 216 220 222 223 227 226 229 227 230 229 229 228 230 229 228 227 226 225 230 230 227 228 233 233 237 234 236 235 240 240 246 254 255 266 265 251 267 280 280 284 284 224 223 239 225 233 235 240 243 228 231 237 245 250 248 256 251 249 247 246 248 249 246 244 241 237 234 232 233 235 241 244 246 248 246 244 240 238 238 240 241
230 225 227 223 216 220 223 226 227 229 227 228 229 228 226 226 226 228 228 230 228 228 232 233 232 234 233 239 234 235 236 232 234 235 241 243 247 250 270 260 251 270 269 269 274 285 261 219 227 221 227 233 232 226 228 236 245 255 252 249 258 252 246 245 245 247 248 247 245 242 239 237 238 240 243 243 244 243 242 238 235 233 234 236 242
234 239 227 223 223 222 225 231 232 233 233 232 232 234 231 231 231 232 235 232 232 232 234 233 237 234 234 234 240 238 236 234 230 236 235 235 242 249 253 273 273 260 270 259 264 247 268 262 202 235 215 225 220 219 227 232 238 249 255 241 251 254 252 247 245 244 246 247 247 246 244 240 238 241 243 242 241 239 239 235 231 231 233 237 238
261 255 254 239 236 233 229 231 233 234 232 232 233 231 230 231 233 230 237 228 235 233 234 234 237 236 237 238 239 242 239 237 234 238 234 237 240 245 244 254 268 283 275 276 268 261 246 262 234 220 220 212 219 219 222 228 237 244 245 237 242 255 251 246 243 242 244 245 247 246 245 242 241 242 241 241 235 228 225 226 228 232 236 240 240
261 257 252 236 233 230 235 236 236 236 237 234 232 233 231 230 232 233 236 233 233 237 235 236 238 236 239 238 238 243 238 237 240 237 238 237 238 239 236 240 250 255 278 279 273 276 269 202 264 248 223 207 211 216 220 220 230 229 223 221 230 244 253 250 245 244 243 243 244 246 245 244 242 241 239 240 238 226 219 218 221 224 227 229 231
260 264 260 258 252 241 240 247 244 243 241 242 239 238 235 236 235 235 237 236 239 240 236 238 240 238 242 240 239 243 240 238 241 236 236 236 237 236 235 235 231 243 257 269 277 258 273 255 209 258 210 224 208 216 212 219 223 217 213 213 214 229 246 251 254 251 247 244 242 243 245 245 242 240 237 238 240 235 221 215 218 219 220 221 226
296 285 284 275 266 265 250 254 256 253 252 251 247 248 238 244 241 243 242 237 241 244 240 236 242 240 242 244 242 245 245 241 242 240 238 237 238 238 238 237 232 235 246 255 271 269 172 264 208 223 228 226 206 218 218 223 223 212 212 209 214 220 230 245 248 250 247 248 248 247 246 245 244 240 235 236 239 235 227 224 223 225 222 227 233
300 304 297 289 285 280 266 254 259 257 254 253 247 247 244 242 244 244 245 236 242 245 247 240 243 241 244 247 245 245 247 244 246 242 241 238 236 237 236 234 236 233 236 247 251 270 236 231 267 219 221 233 213 220 229 227 229 217 217 216 217 215 215 231 243 243 244 245 246 247 246 244 241 239 235 234 238 237 234 232 233 234 233 235 239
292 288 283 282 289 284 284 278 268 267 260 258 249 245 244 248 243 244 247 238 243 245 245 248 242 242 244 248 247 245 244 245 247 245 241 240 237 237 236 236 239 235 232 240 252 265 272 235 252 256 215 210 241 207 235 227 228 226 228 232 222 209 211 218 230 236 237 240 242 242 241 238 234 234 237 234 235 237 236 236 237 238 241 246 253
291 283 282 280 282 286 283 284 282 277 276 272 264 247 248 247 251 240 243 240 243 247 240 249 244 237 244 245 250 249 243 247 251 248 245 244 239 240 239 235 238 241 223 236 249 259 270 269 240 266 239 191 242 187 219 234 230 224 227 227 227 221 220 219 226 236 233 236 239 239 237 235 230 223 226 232 233 232 230 229 230 232 234 239 249
280 258 272 283 286 287 285 279 283 281 277 280 282 277 268 264 267 265 251 247 249 253 250 249 249 240 243 245 250 250 246 249 249 246 245 246 244 242 244 236 239 240 235 231 247 259 267 271 260 251 245 205 228 232 218 233 235 218 229 228 224 225 225 224 228 236 237 238 237 238 236 234 230 226 216 219 223 225 222 217 217 219 222 228 231
332 326 320 307 303 291 282 282 275 278 281 279 284 274 266 264 265 268 269 262 258 259 261 262 262 254 250 256 253 247 244 250 252 249 245 245 242 244 246 244 241 246 240 232 232 245 257 271 274 250 249 221 239 240 233 227 231 230 227 238 234 235 226 220 221 227 235 237 238 237 237 237 240 232 217 213 214 213 209 206 209 212 216 220 224
346 340 340 344 329 323 308 293 290 284 276 280 285 285 278 273 272 274 273 271 267 265 263 264 266 263 264 260 265 260 253 257 259 253 247 248 248 247 249 248 246 246 248 239 238 236 247 256 266 263 235 238 239 240 219 228 245 237 235 229 226 228 229 230 227 226 234 236 234 232 232 233 232 241 243 220 208 204 204 205 206 207 210 215 218
344 346 339 341 336 324 319 307 299 291 290 288 285 285 286 285 280 274 275 273 272 271 270 267 264 262 263 265 265 263 257 255 261 260 251 253 253 249 250 252 248 248 250 250 245 249 252 260 269 277 258 231 250 232 213 207 228 240 250 252 261 252 244 255 239 230 219 226 231 233 235 234 230 225 221 220 210 207 208 208 206 206 210 213 211
343 338 340 335 328 322 309 309 304 301 302 304 293 287 287 289 286 285 282 279 275 273 271 269 266 263 261 262 264 261 257 256 259 260 259 258 258 257 254 254 253 250 252 252 245 242 242 248 254 257 269 260 235 261 223 201 217 221 229 240 248 230 213 231 252 238 220 239 239 235 234 217 211 213 219 216 213 211 211 209 207 210 212 211 209
340 336 331 325 310 304 294 291 289 294 294 298 290 280 278 275 280 279 277 279 279 277 274 271 269 267 265 263 263 260 256 256 257 259 257 259 256 260 257 255 253 253 252 258 261 259 265 268 264 266 257 261 251 241 308 175 236 260 239 229 249 244 217 223 223 223 219 210 238 245 241 233 227 220 221 230 230 224 220 215 214 213 215 213 209
328 325 320 320 316 313 296 280 286 283 283 279 268 268 270 274 264 273 277 277 278 281 279 275 270 267 266 263 262 262 257 258 258 258 259 258 261 265 261 255 254 257 258 253 251 249 248 250 255 257 263 261 255 248 223 214 212 228 213 203 231 244 226 230 242 221 216 200 224 226 228 197 208 218 214 216 222 219 227 217 220 218 218 215 211
326 331 333 325 316 315 318 315 306 304 297 277 273 276 277 273 272 266 266 262 262 265 272 278 276 266 263 265 265 264 266 265 265 267 266 265 259 254 265 269 264 260 260 263 261 258 256 257 259 262 262 258 258 249 241 230 228 229 235 207 232 247 228 243 270 226 191 205 226 238 235 203 202 222 208 225 223 202 218 210 219 212 219 209 210
330 332 330 327 329 322 314 312 314 321 328 308 298 296 290 280 275 273 268 271 260 258 262 265 273 277 270 264 266 270 271 271 270 265 263 264 263 259 257 256 254 254 267 266 264 264 259 252 250 248 249 256 257 252 240 241 216 211 221 212 221 226 224 232 251 261 212 177 202 237 247 204 191 218 216 221 217 206 209 217 219 218 217 208 214
332 329 329 327 326 326 320 314 308 313 319 296 299 301 297 291 284 277 273 271 271 265 260 262 266 271 275 273 267 264 262 260 268 275 275 275 270 265 261 258 257 251 244 239 257 263 260 267 269 262 261 254 260 259 251 237 237 230 233 227 221 225 229 230 239 245 198 175 188 213 242 187 187 220 230 228 213 212 214 210 205 211 212 210 206
325 328 326 327 324 322 317 313 311 316 318 306 306 304 301 297 293 288 278 270 271 272 268 265 268 271 273 278 283 276 271 272 270 270 280 283 278 274 268 261 257 254 252 247 242 246 257 255 260 266 262 263 265 262 255 249 218 237 223 222 214 219 219 223 229 232 209 191 181 212 238 211 173 207 228 227 191 212 216 210 210 209 210 212 209
326 323 324 323 322 321 317 311 308 317 321 315 317 318 315 309 306 302 285 284 276 271 271 270 270 272 270 274 283 286 284 280 277 284 283 282 287 291 288 282 280 269 256 247 246 244 241 248 254 256 257 255 257 265 270 220 210 236 232 233 225 232 228 233 231 231 211 156 186 193 237 224 182 199 229 222 170 211 210 208 209 212 213 213 210
321 321 321 321 318 316 315 312 312 318 322 318 320 321 319 315 313 312 294 288 283 277 273 269 270 271 276 275 275 279 287 288 287 291 292 290 292 289 286 282 276 272 273 270 259 248 245 242 244 252 261 262 262 262 267 261 241 247 243 240 228 226 230 236 249 310 94 199 184 159 231 207 160 198 235 203 181 211 196 206 208 211 214 213 207
304 304 306 307 311 312 312 309 308 314 318 320 322 324 322 321 323 316 307 297 293 289 284 281 275 277 281 282 283 284 284 288 294 295 292 295 294 290 284 283 282 277 271 266 273 289 280 257 242 244 251 259 261 259 258 259 255 251 261 286 305 285 257 241 241 221 214 207 198 189 223 213 194 194 213 113 142 195 185 199 215 219 218 212 207
311 317 313 316 313 312 313 313 314 316 316 320 327 331 335 334 333 324 317 306 297 297 295 294 285 277 274 271 274 281 287 287 293 285 279 274 276 278 279 281 280 277 274 276 267 260 266 269 268 262 256 254 254 254 253 251 250 251 255 254 251 246 240 243 246 231 229 172 210 214 208 226 187 183 153 56 146 198 196 205 217 236 222 210 206
315 318 321 319 315 311 312 317 319 320 322 324 337 342 342 342 344 336 325 316 305 300 300 295 292 286 285 280 272 279 286 289 292 285 278 273 273 272 276 280 282 282 277 281 288 266 260 262 265 264 264 267 266 265 260 254 251 247 241 244 245 230 225 226 245 238 225 176 212 189 190 220 110 156 126 107 70 247 211 252 268 272 244 208 207
309 316 322 317 314 307 302 303 305 315 323 331 341 346 344 345 345 327 331 324 315 313 312 312 311 307 304 304 295 286 286 294 300 307 306 300 285 280 279 279 276 274 276 301 296 293 290 290 277 279 274 264 264 263 264 263 259 254 244 245 246 236 231 228 234 239 238 242 204 162 193 201 153 194 155 123 222 243 150 236 258 253 201 151 176